Location: Ravensburg
(47.7866°N, 9.6124°E)
Time: 07:12:18
(UTC+02:00)

METEOR M2 - Pass Details

Date: 19 March 2026
Orbit: 817 x 824 km, 98.5° (Epoch: 15 April)

Event Time Altitude Azimuth Distance (km) Brightness Sun altitude
Rises 04:16:35 0° 19° (NNE) 3,373 ? -22.1°
Reaches altitude 10° 04:19:03 10° 25° (NNE) 2,435 ? -21.7°
Maximum altitude 04:24:14 46° 98° (E) 1,101 ? -20.9°
Drops below altitude 10° 04:29:22 10° 172° (S) 2,416 ? -20.1°
Sets 04:31:48 0° 178° (S) 3,344 ? -19.7°
